Location: Boiro
(42.6475°N, 8.8834°W)
Time: 17:53:49
(UTC+01:00)

Transit 2A Rocket - Pass Details

Date: 02 December 2021
Orbit: 584 x 918 km, 66.7° (Epoch: 19 January)

Event Time Altitude Azimuth Distance (km) Brightness Sun altitude
Rises 10:25:33 0° 233° (SW) 3,313 8.2 13.3°
Reaches altitude 10° 10:28:03 10° 240° (WSW) 2,433 7.5 13.6°
Maximum altitude 10:33:23 41° 310° (NW) 1,256 5.8 14.2°
Drops below altitude 10° 10:39:04 10° 20° (NNE) 2,595 7.5 14.9°
Sets 10:41:49 0° 27° (NNE) 3,556 8.2 15.2°
